EW5657 Weather Reports


time (UTC)temp
F
wind
direction
speed
knots
gust
knots
rain 1hr
in
rain 24hr
in
rain mn
in
humidity
%
barometer
mb
20260503015345 65 326 3.5 9.6 0.05 0.21 0.21 90 1010.7
20260503014847 65 335 3.5 12.2 0.05 0.21 0.21 90 1010.8
20260503014346 65 352 4.3 13.0 0.05 0.21 0.21 89 1010.8
20260503013851 64 339 2.6 11.3 0.06 0.21 0.21 89 1010.4
20260503013845 64 6 3.5 13.0 0.05 0.21 0.21 89 1010.9
20260503012846 65 339 2.6 7.8 0.07 0.21 0.21 89 1010.6
20260503012345 65 335 2.6 7.8 0.08 0.21 0.21 89 1010.6
20260503011850 65 8 3.5 9.6 0.09 0.20 0.20 89 1010.4
20260503011844 65 327 2.6 9.6 0.09 0.21 0.21 89 1010.8
20260503010845 65 12 4.3 10.4 0.09 0.18 0.18 89 1010.6
20260503010345 65 15 3.5 10.4 0.09 0.18 0.18 89 1010.6
20260503005844 65 2 2.6 12.2 0.09 0.17 0.17 89 1011.0
20260503005346 65 25 2.6 12.2 0.11 0.17 0.17 88 1010.7
20260503004845 65 12 2.6 7.8 0.13 0.17 0.17 88 1011.0
20260503004345 65 6 3.5 13.9 0.14 0.17 0.17 88 1011.0
20260503003845 65 0 3.5 13.9 0.16 0.17 0.17 88 1010.8
20260503003345 65 12 3.5 13.0 0.15 0.16 0.16 88 1011.2
20260503002843 65 0 3.5 13.0 0.13 0.14 0.15 87 1011.0
20260503002344 65 16 2.6 8.7 0.13 0.13 0.13 87 1011.3
20260503001843 65 16 2.6 6.1 0.12 0.12 0.12 86 1011.5
20260503001343 66 24 2.6 6.1 0.10 0.10 0.11 85 1011.7
20260503000844 66 343 2.6 8.7 0.09 0.09 0.10 84 1011.9
20260503000342 66 336 2.6 8.7 0.09 0.09 0.09 84 1011.9
20260502235843 67 337 2.6 7.8 0.07 0.07 0.07 82 1012.0
20260502235352 67 19 3.5 7.0 0.04 0.04 0.04 80 1011.8
20260502235344 67 338 2.6 7.8 0.06 0.06 0.06 81 1011.9
20260502234343 68 355 3.5 10.4 0.02 0.02 0.02 78 1012.1
20260502233850 69 355 4.3 11.3 0.01 0.01 0.01 75 1011.7
20260502233844 68 350 4.3 10.4 0.01 0.01 0.01 76 1012.0
20260502232846 70 11 2.6 7.8 0.00 0.00 0.00 72 1011.4
20260502232840 69 340 3.5 11.3 0.01 0.01 0.01 74 1011.6
20260502231840 70 37 2.6 12.2 0.00 0.00 0.00 71 1011.2
20260502231342 70 329 3.5 12.2 0.00 0.00 0.00 71 1011.7
20260502230847 69 334 3.5 11.3 0.00 0.00 0.00 72 1012.2
20260502230841 69 59 3.5 9.6 0.00 0.00 0.00 72 1012.0
20260502225848 69 28 3.5 10.4 0.00 0.00 0.00 72 1012.1
20260502225842 69 328 3.5 11.3 0.00 0.00 0.00 72 1012.2
20260502224842 69 352 3.5 10.4 0.00 0.00 0.00 73 1011.7
20260502224341 69 21 3.5 9.6 0.00 0.00 0.00 73 1011.3
20260502223842 69 356 3.5 11.3 0.00 0.00 0.00 74 1011.2
20260502223339 68 9 2.6 11.3 0.00 0.00 0.00 74 1011.1
20260502222844 68 358 2.6 7.8 0.00 0.00 0.00 75 1011.2
20260502222838 68 347 3.5 7.8 0.00 0.00 0.00 75 1011.2
20260502221838 68 33 2.6 7.0 0.00 0.00 0.00 75 1011.1
20260502221337 67 27 2.6 7.0 0.00 0.00 0.00 75 1011.5
20260502220838 67 354 2.6 5.2 0.00 0.00 0.00 74 1011.8
20260502220334 67 30 2.6 5.2 0.00 0.00 0.00 74 1012.0
20260502215836 67 2 2.6 5.2 0.00 0.00 0.00 74 1012.1
20260502215335 67 31 2.6 6.1 0.00 0.00 0.00 74 1012.2
20260502214837 67 343 2.6 6.1 0.00 0.00 0.00 74 1012.2
20260502214336 67 335 2.6 6.1 0.00 0.00 0.00 74 1012.1
20260502213837 67 339 2.6 5.2 0.00 0.00 0.00 74 1012.1
20260502213343 67 344 3.5 8.7 0.00 0.00 0.00 73 1011.9
20260502213337 67 348 3.5 8.7 0.00 0.00 0.00 74 1012.0
20260502212835 67 319 3.5 8.7 0.00 0.00 0.00 74 1012.0
20260502211834 68 358 4.3 14.8 0.00 0.00 0.00 73 1011.9
20260502211336 68 8 4.3 14.8 0.00 0.00 0.00 73 1012.1
20260502210835 68 352 4.3 13.9 0.00 0.00 0.00 73 1012.1
20260502210831 68 350 4.3 13.9 0.00 0.00 0.00 73 1012.0
20260502205832 68 35 4.3 11.3 0.00 0.00 0.00 73 1011.9
20260502205331 68 81 4.3 10.4 0.00 0.00 0.00 72 1011.9
20260502204837 68 28 4.3 9.6 0.00 0.00 0.00 72 1012.5
20260502204832 68 351 4.3 10.4 0.00 0.00 0.00 72 1012.2
20260502203832 68 343 4.3 14.8 0.00 0.00 0.00 71 1012.6
20260502203332 68 335 5.2 14.8 0.00 0.00 0.00 71 1012.7
20260502202830 68 339 6.1 13.9 0.00 0.00 0.00 71 1012.7
20260502202330 69 6 6.1 13.9 0.00 0.00 0.00 70 1012.8
20260502201830 69 346 5.2 15.6 0.00 0.00 0.00 68 1012.8
20260502201332 69 341 6.1 15.6 0.00 0.00 0.00 68 1013.0
20260502200832 69 322 7.0 18.2 0.00 0.00 0.00 68 1012.8
20260502200330 69 288 6.1 18.2 0.00 0.00 0.00 69 1012.9
20260502195831 68 347 4.3 12.2 0.00 0.00 0.00 69 1012.8
20260502195332 68 355 4.3 15.6 0.00 0.00 0.00 69 1012.8
20260502194836 69 341 5.2 10.4 0.00 0.00 0.00 68 1012.5
20260502194830 69 337 4.3 15.6 0.00 0.00 0.00 68 1012.5
20260502193830 69 7 5.2 13.9 0.00 0.00 0.00 67 1012.5
20260502193332 69 14 4.3 13.9 0.00 0.00 0.00 67 1012.6
20260502192836 69 353 3.5 10.4 0.00 0.00 0.00 66 1012.5
20260502192830 69 354 3.5 11.3 0.00 0.00 0.00 67 1012.5
20260502191830 69 341 4.3 20.0 0.00 0.00 0.00 66 1012.4
20260502191331 69 21 5.2 20.0 0.00 0.00 0.00 65 1012.5
20260502190832 69 343 5.2 13.0 0.00 0.00 0.00 65 1012.4
20260502190330 70 8 5.2 15.6 0.00 0.00 0.00 65 1012.2
20260502190000 70 4 4.3 16.5 0.00 0.00 0.00 65 1011.9
20260502185835 70 10 5.2 15.6 0.00 0.00 0.00 65 1012.0
20260502185831 70 16 5.2 15.6 0.00 0.00 0.00 65 1012.0
20260502184327 70 7 5.2 16.5 0.00 0.00 0.00 64 1011.9
20260502183830 71 9 5.2 13.0 0.00 0.00 0.00 62 1012.1
20260502183826 71 358 6.1 16.5 0.00 0.00 0.00 63 1012.1
20260502182828 71 341 4.3 13.0 0.00 0.00 0.00 61 1011.9
20260502182330 71 347 6.1 17.4 0.00 0.00 0.00 60 1012.0
20260502182324 71 359 5.2 17.4 0.00 0.00 0.00 61 1012.0
20260502181323 71 303 5.2 14.8 0.00 0.00 0.00 60 1012.1
20260502180829 71 351 4.3 15.6 0.00 0.00 0.00 59 1012.3
20260502180823 71 16 4.3 12.2 0.00 0.00 0.00 59 1012.2
20260502170316 71 345 1.7 6.1 0.00 0.00 0.00 57 1012.8
20260502164325 71 338 0.9 4.3 0.00 0.00 0.00 57 1012.8
20260502164319 71 335 1.7 4.3 0.00 0.00 0.00 57 1012.8
20260502163315 71 325 1.7 3.5 0.00 0.00 0.00 57 1012.9
20260502162821 71 326 1.7 6.1 0.00 0.00 0.00 57 1013.2
20260502162815 71 325 1.7 6.1 0.00 0.00 0.00 57 1013.0
20260502162440 71 312 0.9 3.5 0.00 0.00 0.00 57 1013.2
20260502161314 71 312 0.9 7.0 0.00 0.00 0.00 57 1013.2
20260502160819 71 317 0.9 6.1 0.00 0.00 0.00 57 1013.2
20260502160815 71 309 0.9 7.0 0.00 0.00 0.00 57 1013.1
20260502160441 71 317 0.9 6.1 0.00 0.00 0.00 57 1013.3
20260502152313 71 339 0.9 5.2 0.00 0.00 0.00 56 1013.5
20260502151819 71 328 1.7 7.0 0.00 0.00 0.00 55 1013.5
20260502151811 71 339 0.9 5.2 0.00 0.00 0.00 55 1013.5
20260502150813 71 326 1.7 7.0 0.00 0.00 0.00 55 1013.4
20260502150313 71 310 1.7 9.6 0.00 0.00 0.00 55 1013.4
20260502130305 72 336 0.9 5.2 0.00 0.00 0.00 48 1014.5
20260502123803 72 335 2.6 7.0 0.00 0.00 0.00 47 1014.7
20260502123303 72 333 2.6 7.0 0.00 0.00 0.00 47 1014.8
20260502122805 72 330 3.5 14.8 0.00 0.00 0.00 47 1014.8
20260502122305 73 326 3.5 14.8 0.00 0.00 0.00 48 1014.9
20260502121802 73 333 2.6 8.7 0.00 0.00 0.00 49 1014.9
20260502121301 73 326 2.6 7.8 0.00 0.00 0.00 47 1014.9
20260502120800 73 343 2.6 7.8 0.00 0.00 0.00 48 1014.9
20260502120302 72 328 1.7 6.1 0.00 0.00 0.00 50 1015.0
20260502115806 72 310 1.7 6.1 0.00 0.00 0.00 52 1015.1
20260502115800 72 314 1.7 6.1 0.00 0.00 0.00 51 1015.1
20260502114801 71 320 1.7 6.1 0.00 0.00 0.00 52 1015.1
20260502114300 71 26 0.9 4.3 0.00 0.00 0.00 52 1015.1
20260502113802 71 47 0.0 3.5 0.00 0.00 0.00 52 1015.0
20260502113305 71 49 0.0 1.7 0.00 0.00 0.00 52 1014.9
20260502112802 71 49 0.0 0.9 0.00 0.00 0.00 52 1014.8
20260502112301 71 49 0.0 0.9 0.00 0.00 0.00 52 1014.8
20260502111758 72 49 0.0 0.9 0.00 0.00 0.00 52 1014.9
20260502111259 72 49 0.0 0.9 0.00 0.00 0.00 52 1014.9
20260502110800 72 49 0.0 2.6 0.00 0.00 0.00 52 1015.0
20260502110258 72 49 0.0 2.6 0.00 0.00 0.00 51 1015.0
20260502105800 72 49 0.0 3.5 0.00 0.00 0.00 51 1015.0
20260502105257 72 49 0.9 3.5 0.00 0.00 0.00 51 1014.9
20260502104756 72 37 0.0 3.5 0.00 0.00 0.00 51 1014.9
20260502104258 72 56 0.0 0.9 0.00 0.00 0.00 51 1014.9
20260502103756 72 56 0.0 3.5 0.00 0.00 0.00 50 1014.9
20260502103256 72 56 0.0 3.5 0.00 0.00 0.00 50 1014.9
20260502102758 72 56 0.0 1.7 0.00 0.00 0.00 49 1014.9
20260502102258 72 56 0.9 2.6 0.00 0.00 0.00 49 1015.0
20260502101756 72 56 0.0 2.6 0.00 0.00 0.00 48 1014.9
20260502101302 73 56 0.9 2.6 0.00 0.00 0.00 48 1014.9
20260502101256 72 56 0.0 1.7 0.00 0.00 0.00 48 1014.9
20260502100256 73 58 0.9 3.5 0.00 0.00 0.00 47 1015.0
20260502091252 74 56 0.0 0.9 0.00 0.00 0.00 45 1015.1
20260502090800 74 56 0.0 2.6 0.00 0.00 0.00 44 1015.2
20260502090754 74 56 0.0 2.6 0.00 0.00 0.00 45 1015.2
20260502070750 76 337 1.7 6.1 0.00 0.00 0.00 43 1014.7
20260502070251 76 345 2.6 6.1 0.00 0.00 0.00 43 1014.8
20260502065751 76 324 2.6 8.7 0.00 0.00 0.00 43 1014.7
20260502065250 76 18 2.6 8.7 0.00 0.00 0.00 43 1014.7
20260502064752 76 333 2.6 7.8 0.00 0.00 0.00 43 1014.7
20260502064251 76 349 2.6 7.8 0.00 0.00 0.00 43 1014.8
20260502063749 77 352 2.6 8.7 0.00 0.00 0.00 43 1014.7
20260502063247 77 355 2.6 13.0 0.00 0.00 0.00 42 1014.7
20260502062746 77 10 2.6 13.0 0.00 0.00 0.00 42 1014.7
20260502062244 77 27 2.6 7.0 0.00 0.00 0.00 41 1014.7
20260502061745 78 20 3.5 7.0 0.00 0.00 0.00 41 1014.7
20260502061249 78 352 2.6 6.1 0.00 0.00 0.00 41 1014.8
20260502061243 78 338 2.6 7.0 0.00 0.00 0.00 41 1014.7
20260502060740 77 334 3.5 9.6 0.00 0.00 0.00 41 1014.8
20260502055741 77 324 2.6 9.6 0.00 0.00 0.00 41 1014.8
20260502055240 77 332 2.6 7.8 0.00 0.00 0.00 41 1014.9
20260502054741 77 335 1.7 7.8 0.00 0.00 0.00 42 1014.9
20260502054240 77 323 1.7 8.7 0.00 0.00 0.00 42 1015.0
20260502053741 77 308 2.6 8.7 0.00 0.00 0.00 41 1015.0
20260502053241 77 337 3.5 9.6 0.00 0.00 0.00 41 1015.0
20260502052740 77 330 2.6 9.6 0.00 0.00 0.00 41 1015.1
20260502052238 77 337 2.6 8.7 0.00 0.00 0.00 42 1015.1
20260502051739 77 354 1.7 10.4 0.00 0.00 0.00 42 1015.2
20260502051238 77 318 2.6 10.4 0.00 0.00 0.00 42 1015.1
20260502050740 76 341 2.6 9.6 0.00 0.00 0.00 42 1015.2
20260502050238 76 334 2.6 13.9 0.00 0.00 0.00 43 1015.2
20260502045738 77 337 2.6 13.9 0.00 0.00 0.00 42 1015.3
20260502045238 77 344 1.7 4.3 0.00 0.00 0.00 43 1015.3
20260502044739 77 355 1.7 8.7 0.00 0.00 0.00 43 1015.4
20260502044403 76 337 1.7 5.2 0.00 0.00 0.00 45 1015.4
20260502044244 77 339 1.7 4.3 0.00 0.00 0.00 45 1015.4
20260502044238 77 343 1.7 8.7 0.00 0.00 0.00 44 1015.4
20260502042736 76 337 2.6 9.6 0.00 0.00 0.00 45 1015.5
20260502042236 76 338 3.5 10.4 0.00 0.00 0.00 45 1015.6
20260502041738 76 341 2.6 10.4 0.00 0.00 0.00 44 1015.6
20260502041238 76 340 1.7 4.3 0.00 0.00 0.00 47 1015.7
20260502040741 75 346 1.7 5.2 0.00 0.00 0.00 49 1015.9
20260502040737 75 343 1.7 5.2 0.00 0.00 0.00 48 1015.8
20260502035742 75 2 0.9 3.5 0.00 0.00 0.00 50 1015.9
20260502035735 75 357 0.9 3.5 0.00 0.00 0.00 49 1016.0
20260502034736 74 8 0.9 3.5 0.00 0.00 0.00 50 1016.1
20260502034402 74 337 1.7 5.2 0.00 0.00 0.00 50 1016.4
20260502034241 74 14 1.7 6.1 0.00 0.00 0.00 49 1016.2
20260502034235 74 9 1.7 6.1 0.00 0.00 0.00 50 1016.1
20260502032740 74 339 1.7 7.0 0.00 0.00 0.00 49 1016.5
20260502032734 74 18 1.7 5.2 0.00 0.00 0.00 50 1016.4
20260502031741 74 59 1.7 7.8 0.00 0.00 0.00 49 1016.7
20260502031735 74 338 1.7 7.8 0.00 0.00 0.00 49 1016.6
20260502030735 74 23 1.7 6.1 0.00 0.00 0.00 49 1016.8
20260502030234 74 21 1.7 7.0 0.00 0.00 0.00 49 1017.0
20260502025734 74 6 2.6 7.0 0.00 0.00 0.00 49 1017.0
20260502025233 74 46 1.7 4.3 0.00 0.00 0.00 49 1017.1
20260502024735 74 8 1.7 4.3 0.00 0.00 0.00 49 1017.3
20260502024240 74 318 2.6 10.4 0.00 0.00 0.00 49 1017.5
20260502024234 74 4 2.6 7.8 0.00 0.00 0.00 49 1017.4
20260502023232 74 12 2.6 10.4 0.00 0.00 0.00 50 1017.5
20260502022736 73 39 2.6 8.7 0.00 0.00 0.00 50 1017.7
20260502022732 73 355 2.6 7.0 0.00 0.00 0.00 50 1017.6
20260502021737 73 4 2.6 7.0 0.00 0.00 0.00 50 1018.0
20260502021732 73 4 2.6 8.7 0.00 0.00 0.00 50 1017.9
20260502020733 73 8 2.6 7.0 0.00 0.00 0.00 50 1018.1
20260502020237 72 355 2.6 7.8 0.00 0.00 0.00 51 1018.2
20260502020231 73 10 2.6 7.8 0.00 0.00 0.00 51 1018.2